Volver al catálogo

SCOUT G-1 DEB

ActivoPO
NORAD 44570·DEBRIS·🇺🇸 United States

Lanzado Aug 3, 1985 desde Vandenberg Space Force Base

Loading…

Próximos Pases (próximas 24 horas)

TLE

ObsoletoSource: Space-Track

Época: Aug 31, 2026, 09:44 UTC

1 44570U 85066J   26243.40579030  .00000495  00000-0  85207-3 0  9993
2 44570  90.1570  97.4123 0161534  66.7746  51.5544 13.38022039609185

Sigue SCOUT G-1 DEB en tiempo real con AllMySat

Download on the App Store